#timestamp,LO_Frequency,Hit,StdDev 
1605240015.5,286046997.1,N
1605240035.4,286046996.7,N
1605240055.2,286046999.4,N
1605240075.0,286046997.0,N
1605240075.9,286046997.0,N
1605240095.8,286046996.6,N
1605240115.6,286046996.9,N
1605240135.4,286046999.6,N
1605240155.3,286046998.8,N
1605240175.1,286046998.7,N
1605240176.0,286046998.7,N
1605240195.8,286046999.5,N
1605240215.7,286046996.5,N
1605240235.5,286046996.9,N
1605240255.3,286046996.5,N
1605240275.2,286046997.2,N
1605240295.9,286046997.3,N
1605240315.7,286046997.6,N
1605240335.6,286046998.0,N
1605240355.4,286046995.0,Y
1605240375.2,286046999.5,P
1605240395.1,286046999.3,N
1605240396.0,286046999.3,N
1605240415.8,286046999.4,N
1605240435.6,286046999.2,N
1605240455.5,286046996.9,Y
1605240475.3,286047000.8,P
1605240495.1,286046999.0,N
1605240515.9,286046999.2,N
1605240535.7,286046999.2,N
1605240555.5,286046999.4,N
1605240575.4,286046996.8,Y
1605240595.2,286046999.6,P
1605240615.0,286046998.3,P
1605240615.9,286046998.3,N
1605240635.8,286046998.3,N
1605240655.6,286046998.6,N
1605240675.4,286046998.9,N
1605240695.3,286046999.5,N
1605240715.1,286046998.9,N
1605240735.8,286046998.3,Y
1605240755.7,286047000.3,P
1605240775.5,286046998.5,N
1605240795.3,286047001.2,N
1605240815.2,286046998.5,N
1605240835.0,286046998.1,N
1605240835.9,286046998.1,N
1605240855.7,286046998.2,N
1605240875.6,286047000.7,N
1605240895.4,286047000.9,N
1605240915.2,286047000.7,N
1605240935.1,286047001.2,N
1605240936.0,286047001.2,N
1605240955.8,286046998.6,N
1605240975.6,286046998.3,N
1605240995.5,286047000.7,N
1605241015.3,286047001.0,N
1605241035.1,286047000.7,N
1605241055.9,286047000.9,N
1605241075.7,286047000.0,N
1605241095.5,286047000.3,N
1605241115.4,286047000.9,N
1605241135.2,286046999.7,N
1605241155.0,286046999.7,N
1605241155.9,286046999.7,N
1605241175.8,286046999.8,N
1605241195.6,286047002.8,N
1605241215.4,286047002.5,N
1605241235.3,286047002.1,N
1605241255.1,286047002.4,N
1605241275.8,286047000.0,N
1605241295.7,286047000.1,N
1605241315.5,286047002.0,N
1605241335.3,286047000.5,N
1605241355.2,286047002.6,N
1605241375.9,286047001.4,N
1605241395.7,286047002.3,N
1605241415.6,286047001.5,N
1605241435.4,286047002.6,N
1605241455.2,286047001.9,N
1605241475.1,286047002.0,N
1605241476.0,286047002.0,N
1605241495.8,286047001.4,N
1605241515.6,286047001.6,N
1605241535.5,286047002.2,N
1605241555.3,286047002.2,N
1605241575.1,286046999.8,N
1605241595.9,286047001.9,N
1605241615.7,286047002.2,N
1605241635.5,286047002.4,N
1605241655.4,286047004.0,Y
1605241675.2,286047002.6,P
1605241695.0,286047002.6,P
1605241695.9,286047002.6,P
1605241715.8,286047002.3,Y
1605241735.6,286046998.2,P
1605241755.4,286046998.7,N
1605241775.3,286046998.5,N
1605241795.1,286046998.9,N
1605241815.8,286046998.4,N
1605241835.7,286046998.2,N
1605241855.5,286046998.9,N
1605241875.3,286047001.1,N
1605241895.2,286046998.1,N
1605241915.9,286046998.1,N
1605241935.7,286046998.6,N
1605241955.6,286047000.5,N
1605241975.4,286047000.7,N
1605241995.2,286046998.7,N
1605242015.1,286046998.5,N
1605242016.0,286046998.5,N
1605242035.8,286046998.5,N
1605242055.6,286046998.6,N
1605242075.5,286046998.5,N
1605242095.3,286046998.7,N
1605242115.1,286047000.6,N
1605242135.9,286046998.2,N
1605242155.7,286046998.8,N
1605242175.5,286046998.2,N
1605242195.4,286046998.9,N
1605242215.2,286046999.1,N
1605242235.0,286046999.2,N
1605242235.9,286046999.2,N
1605242255.8,286046999.5,N
1605242275.6,286046998.9,N
1605242295.4,286046998.9,N
1605242315.3,286046999.2,N
1605242335.1,286046999.4,N
1605242336.0,286046999.4,N
1605242355.8,286046998.4,N
1605242375.7,286046998.5,N
1605242395.5,286046998.6,N
1605242415.3,286046998.6,N
1605242435.2,286046998.5,N
1605242455.9,286046998.7,N
1605242475.7,286046998.8,N
1605242495.6,286046999.3,N
1605242515.4,286046999.1,N
1605242535.2,286046998.8,N
1605242555.1,286046998.4,Y
1605242556.0,286046998.4,P
1605242575.8,286047000.8,P
1605242595.6,286046998.7,N
1605242615.5,286046998.8,N
1605242635.3,286046998.9,N
1605242655.1,286046998.3,N
1605242675.9,286047001.2,N
1605242695.7,286046998.3,N
1605242715.5,286047001.1,N
1605242735.4,286046998.3,N
1605242755.2,286047001.1,N
1605242775.0,286046998.8,N
1605242775.9,286046998.8,N
1605242795.8,286046998.4,N
1605242815.6,286046998.3,N
1605242835.4,286046998.5,N
1605242855.3,286047001.2,N
1605242875.1,286046998.5,N
1605242895.8,286046998.9,N
1605242915.7,286046999.3,N
1605242935.5,286046999.3,N
1605242955.3,286046999.2,N
1605242975.2,286046996.6,Y
1605242995.9,286046999.3,P
1605243015.7,286046999.6,P
1605243035.6,286046997.0,P
1605243055.4,286046996.9,Y
1605243075.2,286047001.0,P
1605243095.1,286047000.4,N
1605243096.0,286047000.4,N
1605243115.8,286046998.1,N
1605243135.6,286046998.5,N
1605243155.5,286047001.0,N
1605243175.3,286047001.1,N
1605243195.1,286047000.8,N
1605243215.9,286046998.2,N
1605243235.7,286046998.1,N
1605243255.5,286047001.1,N
1605243275.4,286047000.7,N
1605243295.2,286046998.2,N
1605243315.0,286046998.1,N
1605243315.9,286046998.1,N
1605243335.8,286046999.4,N
1605243355.6,286046999.6,N
1605243375.4,286046999.2,N
1605243395.3,286046999.6,N
1605243415.1,286046999.4,N
1605243435.8,286046999.5,N
1605243455.7,286046997.2,N
1605243475.5,286046996.5,N
1605243495.3,286046997.2,N
1605243515.2,286046996.7,N
1605243535.9,286046996.7,N
1605243555.7,286046996.9,N
1605243575.6,286046999.5,N
1605243595.4,286046997.6,N
